Time,TemperatureF,DewpointF,PressureIn,WindDirection,WindDirectionDegrees,WindSpeedMPH,WindSpeedGustMPH,Humidity,HourlyPrecipIn,Conditions,Clouds,dailyrainin,SoftwareType,DateUTC
2013-07-15 00:07:00,75.0,71.0,29.81,ENE,75,0.0,-999.0,86,-99.99,,,0.00,weatherlink.com 1.10,2013-07-15 05:07:00,
2013-07-15 00:22:00,74.9,71.0,29.81,ENE,75,0.0,-999.0,87,-99.99,,,0.00,weatherlink.com 1.10,2013-07-15 05:22:00,
2013-07-15 00:37:00,74.8,71.0,29.82,ENE,75,0.0,-999.0,88,-99.99,,,0.00,weatherlink.com 1.10,2013-07-15 05:37:00,
2013-07-15 00:52:00,74.8,71.0,29.81,ENE,75,0.0,-999.0,89,-99.99,,,0.00,weatherlink.com 1.10,2013-07-15 05:52:00,
2013-07-15 01:07:00,74.9,72.0,29.81,ENE,69,0.0,-999.0,89,-99.99,,,0.00,weatherlink.com 1.10,2013-07-15 06:07:00,
2013-07-15 01:22:00,75.0,72.0,29.82,East,80,0.0,-999.0,89,-99.99,,,0.00,weatherlink.com 1.10,2013-07-15 06:22:00,
2013-07-15 01:37:00,75.1,72.0,29.82,East,83,0.0,-999.0,89,-99.99,,,0.00,weatherlink.com 1.10,2013-07-15 06:37:00,
2013-07-15 01:52:00,75.3,72.0,29.82,East,97,0.0,-999.0,90,-99.99,,,0.00,weatherlink.com 1.10,2013-07-15 06:52:00,
2013-07-15 02:07:00,75.5,72.0,29.82,SSE,163,0.0,-999.0,89,-99.99,,,0.00,weatherlink.com 1.10,2013-07-15 07:07:00,
2013-07-15 02:22:00,75.5,72.0,29.81,ENE,77,0.0,-999.0,89,-99.99,,,0.00,weatherlink.com 1.10,2013-07-15 07:22:00,
2013-07-15 02:38:00,75.5,72.0,29.80,East,79,0.0,-999.0,89,-99.99,,,0.00,weatherlink.com 1.10,2013-07-15 07:38:00,
2013-07-15 02:53:00,75.5,72.0,29.80,NE,47,0.0,-999.0,89,-99.99,,,0.00,weatherlink.com 1.10,2013-07-15 07:53:00,
2013-07-15 03:08:00,75.5,72.0,29.81,ENE,74,0.0,-999.0,89,-99.99,,,0.00,weatherlink.com 1.10,2013-07-15 08:08:00,
2013-07-15 03:23:00,75.4,72.0,29.81,NE,56,0.0,-999.0,89,-99.99,,,0.00,weatherlink.com 1.10,2013-07-15 08:23:00,
2013-07-15 03:38:00,75.3,72.0,29.81,ENE,64,0.0,-999.0,89,-99.99,,,0.00,weatherlink.com 1.10,2013-07-15 08:38:00,
2013-07-15 03:53:00,75.2,72.0,29.80,ENE,78,0.0,-999.0,90,-99.99,,,0.01,weatherlink.com 1.10,2013-07-15 08:53:00,
2013-07-15 04:08:00,75.1,72.0,29.81,NE,54,0.0,-999.0,91,-99.99,,,0.01,weatherlink.com 1.10,2013-07-15 09:08:00,
2013-07-15 04:23:00,75.0,72.0,29.82,NE,47,0.0,-999.0,91,-99.99,,,0.01,weatherlink.com 1.10,2013-07-15 09:23:00,
2013-07-15 04:38:00,74.9,73.0,29.82,NE,47,0.0,-999.0,92,-99.99,,,0.02,weatherlink.com 1.10,2013-07-15 09:38:00,
2013-07-15 04:53:00,74.6,72.0,29.82,ENE,77,0.0,-999.0,92,-99.99,,,0.02,weatherlink.com 1.10,2013-07-15 09:53:00,
2013-07-15 05:08:00,74.6,72.0,29.82,ENE,77,0.0,-999.0,92,-99.99,,,0.02,weatherlink.com 1.10,2013-07-15 10:08:00,
2013-07-15 05:23:00,74.5,72.0,29.82,ENE,77,0.0,-999.0,93,-99.99,,,0.02,weatherlink.com 1.10,2013-07-15 10:23:00,
2013-07-15 05:38:00,74.5,72.0,29.83,ENE,76,2.0,-999.0,93,-99.99,,,0.02,weatherlink.com 1.10,2013-07-15 10:38:00,
2013-07-15 05:56:00,74.3,72.0,29.83,NE,47,0.0,-999.0,93,-99.99,,,0.02,weatherlink.com 1.10,2013-07-15 10:56:00,
2013-07-15 06:09:00,74.3,73.0,29.82,SE,134,0.0,-999.0,94,-99.99,,,0.02,weatherlink.com 1.10,2013-07-15 11:09:00,
2013-07-15 06:24:00,74.2,72.0,29.83,ENE,66,0.0,-999.0,94,-99.99,,,0.02,weatherlink.com 1.10,2013-07-15 11:24:00,
2013-07-15 06:39:00,74.1,72.0,29.83,East,96,0.0,-999.0,94,-99.99,,,0.02,weatherlink.com 1.10,2013-07-15 11:39:00,
2013-07-15 06:54:00,74.1,72.0,29.83,ENE,63,0.0,-999.0,94,-99.99,,,0.02,weatherlink.com 1.10,2013-07-15 11:54:00,
2013-07-15 07:09:00,74.1,72.0,29.84,East,86,0.0,-999.0,94,-99.99,,,0.02,weatherlink.com 1.10,2013-07-15 12:09:00,
2013-07-15 07:24:00,74.2,72.0,29.84,East,86,0.0,-999.0,94,-99.99,,,0.02,weatherlink.com 1.10,2013-07-15 12:24:00,
2013-07-15 07:39:00,74.2,72.0,29.84,East,80,0.0,-999.0,94,-99.99,,,0.02,weatherlink.com 1.10,2013-07-15 12:39:00,
2013-07-15 07:54:00,74.3,73.0,29.85,NE,54,0.0,-999.0,94,-99.99,,,0.02,weatherlink.com 1.10,2013-07-15 12:54:00,
2013-07-15 08:09:00,74.4,73.0,29.84,ENE,59,0.0,-999.0,95,-99.99,,,0.02,weatherlink.com 1.10,2013-07-15 13:09:00,
2013-07-15 08:24:00,74.6,73.0,29.85,NE,36,0.0,-999.0,95,-99.99,,,0.02,weatherlink.com 1.10,2013-07-15 13:24:00,
2013-07-15 08:39:00,74.7,73.0,29.86,NE,37,0.0,-999.0,95,-99.99,,,0.02,weatherlink.com 1.10,2013-07-15 13:39:00,
2013-07-15 08:55:00,74.9,73.0,29.86,NE,40,0.0,-999.0,95,-99.99,,,0.02,weatherlink.com 1.10,2013-07-15 13:55:00,
2013-07-15 09:10:00,75.1,74.0,29.87,NE,40,0.0,-999.0,95,-99.99,,,0.02,weatherlink.com 1.10,2013-07-15 14:10:00,
2013-07-15 09:25:00,75.2,74.0,29.87,NE,40,0.0,-999.0,95,-99.99,,,0.02,weatherlink.com 1.10,2013-07-15 14:25:00,
2013-07-15 09:40:00,75.2,74.0,29.87,NE,40,0.0,-999.0,95,-99.99,,,0.02,weatherlink.com 1.10,2013-07-15 14:40:00,
2013-07-15 09:55:00,75.3,74.0,29.87,NE,40,0.0,-999.0,94,-99.99,,,0.02,weatherlink.com 1.10,2013-07-15 14:55:00,
2013-07-15 10:25:00,75.7,74.0,29.88,ENE,69,0.0,-999.0,94,-99.99,,,0.02,weatherlink.com 1.10,2013-07-15 15:25:00,
2013-07-15 10:40:00,75.9,74.0,29.88,ENE,69,0.0,-999.0,94,-99.99,,,0.02,weatherlink.com 1.10,2013-07-15 15:40:00,
2013-07-15 10:55:00,76.2,74.0,29.89,ENE,67,2.0,-999.0,94,-99.99,,,0.02,weatherlink.com 1.10,2013-07-15 15:55:00,
2013-07-15 11:10:00,76.4,74.0,29.89,ENE,67,0.0,-999.0,93,-99.99,,,0.02,weatherlink.com 1.10,2013-07-15 16:10:00,
2013-07-15 11:25:00,76.6,74.0,29.89,NE,56,0.0,-999.0,92,-99.99,,,0.02,weatherlink.com 1.10,2013-07-15 16:25:00,
2013-07-15 11:56:00,77.0,74.0,29.89,ENE,65,0.0,-999.0,91,-99.99,,,0.02,weatherlink.com 1.10,2013-07-15 16:56:00,
2013-07-15 12:11:00,77.3,75.0,29.89,ENE,69,2.0,-999.0,91,-99.99,,,0.02,weatherlink.com 1.10,2013-07-15 17:11:00,
2013-07-15 12:26:00,77.5,75.0,29.90,ENE,69,0.0,-999.0,91,-99.99,,,0.02,weatherlink.com 1.10,2013-07-15 17:26:00,
2013-07-15 12:41:00,77.7,75.0,29.90,ENE,66,2.0,-999.0,90,-99.99,,,0.02,weatherlink.com 1.10,2013-07-15 17:41:00,
2013-07-15 12:56:00,77.9,75.0,29.89,ENE,71,0.0,-999.0,90,-99.99,,,0.02,weatherlink.com 1.10,2013-07-15 17:56:00,
2013-07-15 13:11:00,78.3,75.0,29.89,NE,55,0.0,-999.0,89,-99.99,,,0.02,weatherlink.com 1.10,2013-07-15 18:11:00,
2013-07-15 13:26:00,79.1,75.0,29.89,NE,51,0.0,-999.0,88,-99.99,,,0.02,weatherlink.com 1.10,2013-07-15 18:26:00,
2013-07-15 13:41:00,79.7,75.0,29.89,ENE,74,0.0,-999.0,86,-99.99,,,0.02,weatherlink.com 1.10,2013-07-15 18:41:00,
2013-07-15 14:11:00,80.2,75.0,29.88,East,86,0.0,-999.0,83,-99.99,,,0.02,weatherlink.com 1.10,2013-07-15 19:11:00,
2013-07-15 14:27:00,80.9,75.0,29.88,ENE,57,0.0,-999.0,82,-99.99,,,0.03,weatherlink.com 1.10,2013-07-15 19:27:00,
2013-07-15 14:42:00,80.5,75.0,29.88,NE,41,0.0,-999.0,84,-99.99,,,0.03,weatherlink.com 1.10,2013-07-15 19:42:00,
2013-07-15 14:57:00,79.7,75.0,29.88,ENE,75,0.0,-999.0,85,-99.99,,,0.03,weatherlink.com 1.10,2013-07-15 19:57:00,
2013-07-15 15:12:00,79.6,75.0,29.87,East,82,0.0,-999.0,85,-99.99,,,0.03,weatherlink.com 1.10,2013-07-15 20:12:00,
2013-07-15 15:27:00,79.8,74.0,29.87,ENE,69,0.0,-999.0,82,-99.99,,,0.03,weatherlink.com 1.10,2013-07-15 20:27:00,
2013-07-15 16:12:00,77.7,71.0,29.91,SW,229,7.0,-999.0,79,-99.99,,,0.05,weatherlink.com 1.10,2013-07-15 21:12:00,
2013-07-15 16:27:00,71.9,68.0,29.88,SW,228,0.0,-999.0,86,-99.99,,,0.26,weatherlink.com 1.10,2013-07-15 21:27:00,
2013-07-15 16:41:00,71.3,68.2,29.90,SSW,212,0.0,0.0,90,0.00,CLR,,0.40,WeatherDisplay:10.37,2013-07-15 21:41:00,
2013-07-15 16:46:00,71.4,68.6,29.90,West,279,0.0,0.0,91,0.41,RA,,0.41,WeatherDisplay:10.37,2013-07-15 21:46:00,
2013-07-15 16:51:00,71.5,68.7,29.90,West,279,0.0,0.0,91,0.41,RA,,0.41,WeatherDisplay:10.37,2013-07-15 21:51:00,
2013-07-15 16:57:00,71.6,69.2,29.90,West,279,0.0,1.2,92,0.41,CLR,,0.41,WeatherDisplay:10.37,2013-07-15 21:57:00,
2013-07-15 17:02:00,71.6,69.2,29.90,West,279,0.0,0.0,92,0.42,RA,,0.42,WeatherDisplay:10.37,2013-07-15 22:02:00,
2013-07-15 17:07:00,71.4,69.0,29.90,West,279,0.0,0.0,92,0.44,RA,,0.45,WeatherDisplay:10.37,2013-07-15 22:07:00,
2013-07-15 17:12:00,71.1,68.7,29.89,West,279,0.0,1.2,92,0.46,RA,,0.46,WeatherDisplay:10.37,2013-07-15 22:12:00,
2013-07-15 17:18:00,70.9,68.5,29.89,West,280,0.1,1.2,92,0.48,RA,,0.48,WeatherDisplay:10.37,2013-07-15 22:18:00,
2013-07-15 17:23:00,70.5,68.1,29.89,West,280,0.3,1.2,92,0.49,RA,,0.49,WeatherDisplay:10.37,2013-07-15 22:23:00,
2013-07-15 17:28:00,70.1,67.7,29.89,NW,304,0.1,2.3,92,0.50,RA,,0.50,WeatherDisplay:10.37,2013-07-15 22:28:00,
2013-07-15 17:33:00,69.9,67.5,29.89,NW,304,0.0,0.0,92,0.51,RA,,0.51,WeatherDisplay:10.37,2013-07-15 22:33:00,
2013-07-15 17:38:00,69.8,67.4,29.89,NW,304,0.0,0.0,92,0.52,RA,,0.52,WeatherDisplay:10.37,2013-07-15 22:38:00,
2013-07-15 17:43:00,69.7,67.6,29.89,NW,304,0.0,0.0,93,0.13,RA,,0.53,WeatherDisplay:10.37,2013-07-15 22:43:00,
2013-07-15 17:49:00,69.7,67.6,29.89,NW,304,0.0,0.0,93,0.13,RA,,0.54,WeatherDisplay:10.37,2013-07-15 22:49:00,
2013-07-15 17:54:00,69.7,67.6,29.89,NW,304,0.0,0.0,93,0.13,RA,,0.55,WeatherDisplay:10.37,2013-07-15 22:54:00,
2013-07-15 17:59:00,70.0,68.2,29.89,ENE,65,0.8,1.2,94,0.14,RA,,0.55,WeatherDisplay:10.37,2013-07-15 22:59:00,
2013-07-15 18:04:00,70.3,68.5,29.89,NE,49,0.0,3.5,94,0.13,RA,,0.55,WeatherDisplay:10.37,2013-07-15 23:04:00,
2013-07-15 18:09:00,70.4,68.6,29.89,ENE,57,0.0,0.0,94,0.10,CLR,,0.55,WeatherDisplay:10.37,2013-07-15 23:09:00,
2013-07-15 18:15:00,70.3,68.5,29.89,ENE,61,0.0,0.0,94,0.08,CLR,,0.55,WeatherDisplay:10.37,2013-07-15 23:15:00,
2013-07-15 18:20:00,70.2,68.4,29.89,ENE,61,0.0,0.0,94,0.08,RA,,0.56,WeatherDisplay:10.37,2013-07-15 23:20:00,
2013-07-15 18:25:00,70.1,68.3,29.88,ENE,61,0.0,0.0,94,0.07,RA,,0.56,WeatherDisplay:10.37,2013-07-15 23:25:00,
2013-07-15 18:30:00,70.0,68.2,29.88,ENE,61,0.0,0.0,94,0.05,CLR,,0.56,WeatherDisplay:10.37,2013-07-15 23:30:00,
2013-07-15 18:35:00,69.9,68.1,29.88,ENE,61,0.0,0.0,94,0.05,RA,,0.57,WeatherDisplay:10.37,2013-07-15 23:35:00,
2013-07-15 18:40:00,69.8,68.0,29.88,ENE,61,0.0,0.0,94,0.04,RA,,0.57,WeatherDisplay:10.37,2013-07-15 23:40:00,
2013-07-15 18:45:00,69.7,67.9,29.88,ENE,61,0.0,0.0,94,0.04,CLR,,0.57,WeatherDisplay:10.37,2013-07-15 23:45:00,
2013-07-15 18:50:00,69.6,67.8,29.88,ENE,61,0.0,0.0,94,0.03,CLR,,0.57,WeatherDisplay:10.37,2013-07-15 23:50:00,
2013-07-15 18:55:00,69.5,67.7,29.88,ENE,61,0.0,0.0,94,0.03,RA,,0.58,WeatherDisplay:10.37,2013-07-15 23:55:00,
2013-07-15 19:00:00,69.5,67.7,29.88,ENE,61,0.0,0.0,94,0.03,RA,,0.58,WeatherDisplay:10.37,2013-07-16 00:00:00,
2013-07-15 19:06:00,69.5,67.7,29.88,ENE,61,0.0,0.0,94,0.03,CLR,,0.58,WeatherDisplay:10.37,2013-07-16 00:06:00,
2013-07-15 19:11:00,69.5,68.0,29.89,ENE,61,0.0,0.0,95,0.03,CLR,,0.58,WeatherDisplay:10.37,2013-07-16 00:11:00,
2013-07-15 19:16:00,69.5,68.0,29.89,ENE,61,0.0,0.0,95,0.04,RA,,0.59,WeatherDisplay:10.37,2013-07-16 00:16:00,
2013-07-15 19:21:00,69.6,68.1,29.88,ENE,61,0.0,0.0,95,0.03,RA,,0.59,WeatherDisplay:10.37,2013-07-16 00:21:00,
2013-07-15 19:27:00,69.7,68.2,29.88,ENE,61,0.0,0.0,95,0.03,CLR,,0.59,WeatherDisplay:10.37,2013-07-16 00:27:00,
2013-07-15 19:32:00,69.9,68.4,29.88,ENE,61,0.0,0.0,95,0.02,CLR,,0.59,WeatherDisplay:10.37,2013-07-16 00:32:00,
2013-07-15 19:38:00,70.1,68.6,29.88,ENE,61,0.0,0.0,95,0.02,CLR,,0.59,WeatherDisplay:10.37,2013-07-16 00:38:00,
2013-07-15 19:43:00,70.2,68.7,29.88,ENE,61,0.0,0.0,95,0.02,CLR,,0.59,WeatherDisplay:10.37,2013-07-16 00:43:00,
2013-07-15 19:48:00,70.3,68.8,29.88,ENE,61,0.0,0.0,95,0.02,CLR,,0.59,WeatherDisplay:10.37,2013-07-16 00:48:00,
2013-07-15 19:53:00,70.3,68.8,29.88,ENE,61,0.0,0.0,95,0.01,CLR,,0.59,WeatherDisplay:10.37,2013-07-16 00:53:00,
2013-07-15 19:59:00,70.4,68.9,29.88,ENE,61,0.0,0.0,95,0.01,CLR,,0.59,WeatherDisplay:10.37,2013-07-16 00:59:00,
2013-07-15 20:04:00,70.5,69.0,29.88,ENE,61,0.0,0.0,95,0.01,CLR,,0.59,WeatherDisplay:10.37,2013-07-16 01:04:00,
2013-07-15 20:09:00,70.7,69.2,29.88,ENE,61,0.0,0.0,95,0.01,CLR,,0.59,WeatherDisplay:10.37,2013-07-16 01:09:00,
2013-07-15 20:14:00,70.7,69.2,29.89,ENE,61,0.0,0.0,95,0.00,CLR,,0.59,WeatherDisplay:10.37,2013-07-16 01:14:00,
2013-07-15 20:19:00,71.0,69.5,29.89,ENE,61,0.0,0.0,95,0.00,CLR,,0.59,WeatherDisplay:10.37,2013-07-16 01:19:00,
2013-07-15 20:24:00,71.0,69.5,29.90,ENE,61,0.0,0.0,95,0.00,CLR,,0.59,WeatherDisplay:10.37,2013-07-16 01:24:00,
2013-07-15 20:30:00,71.0,69.5,29.90,ENE,61,0.0,0.0,95,0.00,CLR,,0.59,WeatherDisplay:10.37,2013-07-16 01:30:00,
2013-07-15 20:35:00,71.0,69.5,29.91,ENE,61,0.0,0.0,95,0.00,CLR,,0.59,WeatherDisplay:10.37,2013-07-16 01:35:00,
2013-07-15 20:40:00,70.9,69.4,29.91,ENE,61,0.0,0.0,95,0.00,CLR,,0.59,WeatherDisplay:10.37,2013-07-16 01:40:00,
2013-07-15 20:45:00,70.8,69.3,29.91,ENE,61,0.0,0.0,95,0.00,CLR,,0.59,WeatherDisplay:10.37,2013-07-16 01:45:00,
2013-07-15 20:50:00,70.8,69.3,29.91,ENE,61,0.0,0.0,95,0.00,CLR,,0.59,WeatherDisplay:10.37,2013-07-16 01:50:00,
2013-07-15 20:56:00,70.8,69.3,29.91,ENE,61,0.0,0.0,95,0.00,CLR,,0.59,WeatherDisplay:10.37,2013-07-16 01:56:00,
2013-07-15 21:01:00,70.7,69.2,29.91,ENE,61,0.0,0.0,95,0.00,CLR,,0.59,WeatherDisplay:10.37,2013-07-16 02:01:00,
2013-07-15 21:07:00,70.7,69.2,29.92,ENE,61,0.3,2.3,95,0.00,CLR,,0.59,WeatherDisplay:10.37,2013-07-16 02:07:00,
2013-07-15 21:12:00,70.7,69.2,29.92,ENE,61,0.2,2.3,95,0.00,CLR,,0.59,WeatherDisplay:10.37,2013-07-16 02:12:00,
2013-07-15 21:17:00,70.6,69.1,29.92,ENE,61,0.0,0.0,95,0.00,CLR,,0.59,WeatherDisplay:10.37,2013-07-16 02:17:00,
2013-07-15 21:22:00,70.6,69.1,29.92,ENE,62,0.0,0.0,95,0.00,CLR,,0.59,WeatherDisplay:10.37,2013-07-16 02:22:00,
2013-07-15 21:27:00,70.7,69.2,29.92,ENE,62,0.0,1.2,95,0.00,CLR,,0.59,WeatherDisplay:10.37,2013-07-16 02:27:00,
2013-07-15 21:32:00,70.7,69.2,29.92,ENE,62,0.0,1.2,95,0.00,CLR,,0.59,WeatherDisplay:10.37,2013-07-16 02:32:00,
2013-07-15 21:37:00,70.8,69.3,29.92,ENE,62,0.0,0.0,95,0.00,CLR,,0.59,WeatherDisplay:10.37,2013-07-16 02:37:00,
2013-07-15 21:42:00,70.9,69.4,29.92,ENE,62,0.0,0.0,95,0.00,CLR,,0.59,WeatherDisplay:10.37,2013-07-16 02:42:00,
2013-07-15 21:48:00,71.0,69.8,29.92,East,82,0.0,1.2,96,0.00,CLR,,0.59,WeatherDisplay:10.37,2013-07-16 02:48:00,
2013-07-15 21:53:00,71.0,69.8,29.92,East,95,0.0,0.0,96,0.00,CLR,,0.59,WeatherDisplay:10.37,2013-07-16 02:53:00,
2013-07-15 21:58:00,71.1,69.9,29.92,East,92,0.0,0.0,96,0.00,CLR,,0.59,WeatherDisplay:10.37,2013-07-16 02:58:00,
2013-07-15 22:04:00,71.1,69.9,29.92,East,89,0.1,2.3,96,0.00,CLR,,0.59,WeatherDisplay:10.37,2013-07-16 03:04:00,
2013-07-15 22:09:00,71.2,70.0,29.92,East,88,0.0,0.0,96,0.00,CLR,,0.59,WeatherDisplay:10.37,2013-07-16 03:09:00,
2013-07-15 22:15:00,71.3,70.1,29.93,East,94,0.2,1.0,96,0.00,CLR,,0.59,WeatherDisplay:10.37,2013-07-16 03:15:00,
2013-07-15 22:20:00,71.3,70.1,29.93,East,94,0.0,0.0,96,0.00,CLR,,0.59,WeatherDisplay:10.37,2013-07-16 03:20:00,
2013-07-15 22:25:00,71.3,70.1,29.93,NE,50,0.2,3.0,96,0.00,CLR,,0.59,WeatherDisplay:10.37,2013-07-16 03:25:00,
2013-07-15 22:30:00,71.3,70.1,29.93,East,80,0.0,2.3,96,0.00,CLR,,0.59,WeatherDisplay:10.37,2013-07-16 03:30:00,
2013-07-15 22:35:00,71.3,70.1,29.93,ENE,76,0.2,2.3,96,0.00,CLR,,0.59,WeatherDisplay:10.37,2013-07-16 03:35:00,
2013-07-15 22:40:00,71.4,70.2,29.93,ESE,107,0.4,3.5,96,0.00,CLR,,0.59,WeatherDisplay:10.37,2013-07-16 03:40:00,
2013-07-15 22:45:00,71.4,70.2,29.94,ESE,107,0.0,0.0,96,0.00,CLR,,0.59,WeatherDisplay:10.37,2013-07-16 03:45:00,
2013-07-15 22:50:00,71.4,70.2,29.94,East,97,0.1,0.0,96,0.00,CLR,,0.59,WeatherDisplay:10.37,2013-07-16 03:50:00,
2013-07-15 22:55:00,71.4,70.2,29.94,East,97,0.0,0.0,96,0.00,CLR,,0.59,WeatherDisplay:10.37,2013-07-16 03:55:00,
2013-07-15 23:01:00,71.4,70.2,29.94,East,92,0.0,0.0,96,0.00,CLR,,0.59,WeatherDisplay:10.37,2013-07-16 04:01:00,
2013-07-15 23:06:00,71.4,70.2,29.95,East,92,0.0,0.0,96,0.00,CLR,,0.59,WeatherDisplay:10.37,2013-07-16 04:06:00,
2013-07-15 23:11:00,71.4,70.2,29.95,East,92,0.0,0.0,96,0.00,CLR,,0.59,WeatherDisplay:10.37,2013-07-16 04:11:00,
2013-07-15 23:16:00,71.4,70.2,29.95,East,92,0.0,0.0,96,0.00,CLR,,0.59,WeatherDisplay:10.37,2013-07-16 04:16:00,
2013-07-15 23:21:00,71.4,70.2,29.95,East,92,0.0,0.0,96,0.00,CLR,,0.59,WeatherDisplay:10.37,2013-07-16 04:21:00,
2013-07-15 23:26:00,71.4,70.2,29.95,East,85,0.3,2.3,96,0.00,CLR,,0.59,WeatherDisplay:10.37,2013-07-16 04:26:00,
2013-07-15 23:31:00,71.3,70.1,29.95,ENE,78,0.2,3.5,96,0.00,CLR,,0.59,WeatherDisplay:10.37,2013-07-16 04:31:00,
2013-07-15 23:36:00,71.3,70.1,29.95,ENE,73,0.4,3.5,96,0.00,CLR,,0.59,WeatherDisplay:10.37,2013-07-16 04:36:00,
2013-07-15 23:41:00,71.3,70.1,29.95,ENE,67,0.4,2.3,96,0.00,CLR,,0.59,WeatherDisplay:10.37,2013-07-16 04:41:00,
2013-07-15 23:46:00,71.3,70.1,29.95,ENE,65,0.0,0.0,96,0.00,CLR,,0.59,WeatherDisplay:10.37,2013-07-16 04:46:00,
2013-07-15 23:51:00,71.3,70.1,29.95,NE,54,0.3,1.2,96,0.00,CLR,,0.59,WeatherDisplay:10.37,2013-07-16 04:51:00,
2013-07-15 23:56:00,71.3,70.1,29.95,ENE,75,0.0,0.0,96,0.00,CLR,,0.59,WeatherDisplay:10.37,2013-07-16 04:56:00,